Regional Weather Roundup
Issued by NWS Albany, NY

Home | Current Version | Previous Version | Text Only | Print | Product List | Glossary On
Versions: 1 2 3 4 5 6 7 8 9 10 11 12 13 14 15 16 17 18 19 20 21 22 23 24 25 26 27 28 29 30 31 32 33 34 35 36 37 38 39 40 41 42 43 44 45 46 47 48 49 50
000
ASUS41 KALY 301710
RWRALY

NEW YORK STATE HOURLY WEATHER ROUNDUP
NATIONAL WEATHER SERVICE ALBANY NY
100 PM EDT SUN AUG 30 2015

NOTE: "FAIR" INDICATES FEW OR NO CLOUDS BELOW 12,000 FEET WITH NO
SIGNIFICANT WEATHER AND/OR NO OBSTRUCTIONS TO VISIBILITY.

NYZ032-033-038>043-046>054-057>066-NYZ062>081-301800-
EAST


CITY           SKY/WX    TMP DP  RH WIND       PRES   REMARKS
ALBANY         PTSUNNY   77  61  57 CALM      30.08F
GLENS FALLS    CLOUDY    76  61  59 E7        30.07F
POUGHKEEPSIE   PTSUNNY   83  66  56 N3        30.06F
MONTGOMERY     PTSUNNY   84  67  56 S6        30.07F
WHITE PLAINS   MOSUNNY   86  65  49 S5        30.08F
ISLIP          PTSUNNY   84  67  56 S9        30.07F
NEW YORK CITY  PTSUNNY   87  61  41 W6        30.07F
CENTRAL PARK   PTSUNNY   87  63  44 MISG      30.10F
$$

NYZ005>009-017-018-044>046-055-056-301800-
CENTRAL


CITY           SKY/WX    TMP DP  RH WIND       PRES   REMARKS
FULTON         CLOUDY    74  64  71 N3        30.09F
SYRACUSE       CLOUDY    77  64  64 N5        30.07F
ROME           CLOUDY    76  58  53 CALM      30.09F
ELMIRA         PTSUNNY   79  65  62 W7        30.09F
BINGHAMTON     PTSUNNY   74  61  63 W6        30.12F
MONTICELLO     MOSUNNY   75  64  69 W6        30.13F
$$

NYZ026>034-041>043-301800-
NORTH


CITY           SKY/WX    TMP DP  RH WIND       PRES   REMARKS
WATERTOWN      CLOUDY    75  60  59 W5        30.07F
FORT DRUM      NOT AVBL
MASSENA        SUNNY     77  61  57 NW7       30.06F
SARANAC LAKE   PTSUNNY   72  57  59 VRB3      30.09F
PLATTSBURGH    PTSUNNY   76  63  64 S13       30.04F
$$

NYZ001>004-010>016-019>021-301800-
WEST


CITY           SKY/WX    TMP DP  RH WIND       PRES   REMARKS
NIAGARA FALLS  PTSUNNY   77  63  61 NW7       30.08F
BUFFALO        PTSUNNY   76  65  68 SW12      30.09F
DUNKIRK        MOSUNNY   75  65  70 W8        30.10F
JAMESTOWN      PTSUNNY   73  63  68 W9        30.14F
WELLSVILLE     PTSUNNY   78  62  57 NW9       30.16S
ROCHESTER      PTSUNNY   78  60  53 NW5       30.08F
PENN YAN       PTSUNNY   76  63  64 SW5       30.10F
$$

             KEY
       WCI = WIND CHILL INDEX
       VSB = VISIBILITY
       HX  = HEAT INDEX
$$



USA.gov is the U.S. government's official web portal to all federal, state and local government web resources and services.